Time,TemperatureF,DewpointF,PressureIn,WindDirection,WindDirectionDegrees,WindSpeedMPH,WindSpeedGustMPH,Humidity,HourlyPrecipIn,Conditions,Clouds,dailyrainin,SoftwareType,DateUTC
2013-05-23 00:02:00,63.0,57.0,29.72,West,268,5.0,10.0,82,0.00,,,0.16,,2013-05-23 05:02:00,
2013-05-23 00:32:00,61.0,55.0,29.73,West,276,9.0,13.0,81,0.00,,,0.16,,2013-05-23 05:32:00,
2013-05-23 00:43:00,61.0,55.0,29.73,West,277,7.0,14.0,80,0.00,,,0.16,,2013-05-23 05:43:00,
2013-05-23 00:52:00,61.0,55.0,29.73,West,277,7.0,14.0,80,0.00,,,0.16,,2013-05-23 05:52:00,
2013-05-23 01:02:00,61.0,55.0,29.73,WSW,257,7.0,12.0,81,0.00,,,0.16,,2013-05-23 06:02:00,
2013-05-23 01:12:00,61.0,55.0,29.73,WSW,257,7.0,12.0,81,0.00,,,0.16,,2013-05-23 06:12:00,
2013-05-23 01:21:00,61.0,55.0,29.73,West,263,7.0,11.0,82,0.00,,,0.16,,2013-05-23 06:21:00,
2013-05-23 01:32:00,60.0,55.0,29.74,WSW,257,7.0,13.0,83,0.00,,,0.16,,2013-05-23 06:32:00,
2013-05-23 01:42:00,60.0,55.0,29.74,WSW,257,7.0,13.0,83,0.00,,,0.16,,2013-05-23 06:42:00,
2013-05-23 01:52:00,60.0,55.0,29.73,WSW,249,6.0,9.0,83,0.00,,,0.16,,2013-05-23 06:52:00,
2013-05-23 02:02:00,60.0,55.0,29.73,WSW,250,10.0,13.0,83,0.00,,,0.16,,2013-05-23 07:02:00,
2013-05-23 02:11:00,60.0,55.0,29.73,WSW,250,10.0,13.0,83,0.00,,,0.16,,2013-05-23 07:11:00,
2013-05-23 02:21:00,60.0,55.0,29.73,West,264,9.0,13.0,83,0.00,,,0.16,,2013-05-23 07:21:00,
2013-05-23 02:32:00,59.0,54.0,29.73,WSW,257,7.0,14.0,84,0.00,,,0.16,,2013-05-23 07:32:00,
2013-05-23 02:42:00,59.0,54.0,29.73,WSW,257,7.0,14.0,84,0.00,,,0.16,,2013-05-23 07:42:00,
2013-05-23 02:59:00,59.0,54.0,29.73,West,259,8.0,13.0,85,0.00,,,0.16,,2013-05-23 07:59:00,
2013-05-23 03:11:00,58.0,54.0,29.73,WSW,250,6.0,10.0,86,0.00,,,0.16,,2013-05-23 08:11:00,
2013-05-23 03:22:00,59.0,55.0,29.73,WSW,250,7.0,13.0,86,0.00,,,0.16,,2013-05-23 08:22:00,
2013-05-23 03:31:00,59.0,55.0,29.74,WSW,246,7.0,11.0,86,0.00,,,0.16,,2013-05-23 08:31:00,
2013-05-23 03:41:00,59.0,55.0,29.74,WSW,246,7.0,11.0,86,0.00,,,0.16,,2013-05-23 08:41:00,
2013-05-23 03:52:00,59.0,55.0,29.74,West,260,7.0,11.0,87,0.00,,,0.16,,2013-05-23 08:52:00,
2013-05-23 04:01:00,59.0,55.0,29.74,West,259,7.0,11.0,87,0.00,,,0.16,,2013-05-23 09:01:00,
2013-05-23 04:11:00,59.0,55.0,29.74,West,259,7.0,11.0,87,0.00,,,0.16,,2013-05-23 09:11:00,
2013-05-23 04:21:00,59.0,55.0,29.75,West,263,7.0,12.0,87,0.00,,,0.16,,2013-05-23 09:21:00,
2013-05-23 04:33:00,59.0,55.0,29.75,WSW,252,7.0,10.0,87,0.00,,,0.16,,2013-05-23 09:33:00,
2013-05-23 04:42:00,59.0,55.0,29.75,WSW,252,7.0,10.0,87,0.00,,,0.16,,2013-05-23 09:42:00,
2013-05-23 04:53:00,59.0,55.0,29.75,West,262,8.0,11.0,87,0.00,,,0.16,,2013-05-23 09:53:00,
2013-05-23 05:02:00,59.0,55.0,29.76,WSW,252,7.0,11.0,87,0.00,,,0.16,,2013-05-23 10:02:00,
2013-05-23 05:12:00,59.0,55.0,29.76,WSW,252,7.0,11.0,87,0.00,,,0.16,,2013-05-23 10:12:00,
2013-05-23 05:22:00,59.0,55.0,29.76,West,259,7.0,14.0,87,0.00,,,0.16,,2013-05-23 10:22:00,
2013-05-23 05:32:00,59.0,55.0,29.77,West,268,8.0,12.0,88,0.00,,,0.16,,2013-05-23 10:32:00,
2013-05-23 05:42:00,59.0,55.0,29.77,West,268,8.0,12.0,88,0.00,,,0.16,,2013-05-23 10:42:00,
2013-05-23 05:52:00,59.0,55.0,29.77,West,264,7.0,10.0,88,0.00,,,0.16,,2013-05-23 10:52:00,
2013-05-23 06:02:00,59.0,56.0,29.77,West,265,5.0,10.0,89,0.00,,,0.16,,2013-05-23 11:02:00,
2013-05-23 06:11:00,59.0,56.0,29.77,West,265,5.0,10.0,89,0.00,,,0.16,,2013-05-23 11:11:00,
2013-05-23 06:22:00,59.0,56.0,29.78,WSW,248,6.0,13.0,89,0.00,,,0.16,,2013-05-23 11:22:00,
2013-05-23 06:32:00,59.0,56.0,29.79,WSW,240,4.0,11.0,89,0.00,,,0.16,,2013-05-23 11:32:00,
2013-05-23 06:42:00,59.0,56.0,29.79,WSW,240,4.0,11.0,89,0.00,,,0.16,,2013-05-23 11:42:00,
2013-05-23 06:52:00,59.0,56.0,29.79,SW,236,5.0,9.0,89,0.00,,,0.16,,2013-05-23 11:52:00,
2013-05-23 07:01:00,59.0,55.0,29.79,WSW,248,4.0,11.0,88,0.00,,,0.16,,2013-05-23 12:01:00,
2013-05-23 07:11:00,59.0,55.0,29.79,WSW,248,4.0,11.0,88,0.00,,,0.16,,2013-05-23 12:11:00,
2013-05-23 07:21:00,59.0,55.0,29.80,West,261,8.0,13.0,87,0.00,,,0.16,,2013-05-23 12:21:00,
2013-05-23 07:32:00,59.0,55.0,29.80,WSW,256,8.0,12.0,87,0.00,,,0.16,,2013-05-23 12:32:00,
2013-05-23 07:42:00,59.0,55.0,29.80,WSW,256,8.0,12.0,87,0.00,,,0.16,,2013-05-23 12:42:00,
2013-05-23 07:52:00,59.0,55.0,29.80,WSW,252,7.0,12.0,87,0.00,,,0.16,,2013-05-23 12:52:00,
2013-05-23 08:01:00,59.0,55.0,29.81,West,271,9.0,14.0,86,0.00,,,0.16,,2013-05-23 13:01:00,
2013-05-23 08:11:00,59.0,55.0,29.81,West,271,9.0,14.0,86,0.00,,,0.16,,2013-05-23 13:11:00,
2013-05-23 08:22:00,60.0,56.0,29.82,West,271,8.0,14.0,86,0.00,,,0.16,,2013-05-23 13:22:00,
2013-05-23 08:31:00,61.0,56.0,29.82,West,279,10.0,14.0,84,0.00,,,0.16,,2013-05-23 13:31:00,
2013-05-23 08:41:00,61.0,56.0,29.82,West,279,10.0,14.0,84,0.00,,,0.16,,2013-05-23 13:41:00,
2013-05-23 08:52:00,60.0,55.0,29.83,West,278,11.0,16.0,83,0.00,,,0.16,,2013-05-23 13:52:00,
2013-05-23 09:01:00,61.0,56.0,29.83,WNW,287,8.0,14.0,83,0.00,,,0.16,,2013-05-23 14:01:00,
2013-05-23 09:11:00,61.0,56.0,29.83,WNW,287,8.0,14.0,83,0.00,,,0.16,,2013-05-23 14:11:00,
2013-05-23 09:21:00,61.0,55.0,29.84,WNW,292,10.0,15.0,81,0.00,,,0.16,,2013-05-23 14:21:00,
2013-05-23 09:32:00,62.0,56.0,29.84,West,275,8.0,14.0,81,0.00,,,0.16,,2013-05-23 14:32:00,
2013-05-23 09:42:00,62.0,56.0,29.84,West,275,8.0,14.0,81,0.00,,,0.16,,2013-05-23 14:42:00,
2013-05-23 09:52:00,62.0,55.0,29.84,NW,308,10.0,13.0,79,0.00,,,0.16,,2013-05-23 14:52:00,
2013-05-23 10:01:00,62.0,55.0,29.84,WNW,289,9.0,15.0,77,0.00,,,0.16,,2013-05-23 15:01:00,
2013-05-23 10:11:00,62.0,55.0,29.84,WNW,289,9.0,15.0,77,0.00,,,0.16,,2013-05-23 15:11:00,
2013-05-23 10:21:00,62.0,55.0,29.85,NW,309,10.0,15.0,79,0.00,,,0.16,,2013-05-23 15:21:00,
2013-05-23 10:32:00,62.0,55.0,29.85,NW,309,10.0,15.0,79,0.00,,,0.16,,2013-05-23 15:32:00,
2013-05-23 10:42:00,62.0,55.0,29.85,NW,309,10.0,15.0,79,0.00,,,0.16,,2013-05-23 15:42:00,
2013-05-23 10:53:00,59.0,55.0,29.87,NW,312,10.0,15.0,87,0.00,,,0.16,,2013-05-23 15:53:00,
2013-05-23 11:03:00,59.0,56.0,29.87,NW,321,10.0,15.0,90,0.00,,,0.16,,2013-05-23 16:03:00,
2013-05-23 11:12:00,59.0,56.0,29.87,NW,321,10.0,15.0,90,0.00,,,0.16,,2013-05-23 16:12:00,
2013-05-23 11:23:00,59.0,56.0,29.87,NW,321,10.0,15.0,90,0.00,,,0.16,,2013-05-23 16:23:00,
2013-05-23 11:33:00,57.0,54.0,29.88,North,360,13.0,21.0,89,0.01,,,0.17,,2013-05-23 16:33:00,
2013-05-23 11:42:00,57.0,54.0,29.88,North,360,13.0,21.0,89,0.01,,,0.17,,2013-05-23 16:42:00,
2013-05-23 11:52:00,56.0,53.0,29.89,North,360,14.0,20.0,90,0.01,,,0.17,,2013-05-23 16:52:00,
2013-05-23 12:03:00,55.0,52.0,29.90,NNE,20,13.0,19.0,89,0.01,,,0.17,,2013-05-23 17:03:00,
2013-05-23 12:11:00,55.0,52.0,29.90,NNE,20,13.0,19.0,89,0.01,,,0.17,,2013-05-23 17:11:00,
2013-05-23 12:22:00,55.0,51.0,29.91,NNE,21,14.0,19.0,87,0.01,,,0.17,,2013-05-23 17:22:00,
2013-05-23 12:33:00,54.0,50.0,29.92,North,10,13.0,23.0,86,0.00,,,0.17,,2013-05-23 17:33:00,
2013-05-23 12:43:00,54.0,50.0,29.92,North,10,13.0,23.0,86,0.00,,,0.17,,2013-05-23 17:43:00,
2013-05-23 12:52:00,54.0,51.0,29.92,NNE,17,15.0,23.0,89,0.00,,,0.17,,2013-05-23 17:52:00,
2013-05-23 13:01:00,54.0,50.0,29.93,NNE,13,13.0,23.0,85,0.00,,,0.17,,2013-05-23 18:01:00,
2013-05-23 13:11:00,54.0,50.0,29.93,NNE,13,13.0,23.0,85,0.00,,,0.17,,2013-05-23 18:11:00,
2013-05-23 13:21:00,54.0,50.0,29.93,North,9,13.0,23.0,85,0.00,,,0.17,,2013-05-23 18:21:00,
2013-05-23 13:32:00,53.0,49.0,29.93,North,5,12.0,21.0,85,0.00,,,0.02,,2013-05-23 18:32:00,
2013-05-23 13:42:00,53.0,49.0,29.93,North,5,12.0,21.0,85,0.00,,,0.02,,2013-05-23 18:42:00,
2013-05-23 13:52:00,53.0,48.0,29.95,NNE,13,12.0,22.0,83,0.00,,,0.02,,2013-05-23 18:52:00,
2013-05-23 14:01:00,53.0,48.0,29.96,North,355,12.0,21.0,83,0.00,,,0.02,,2013-05-23 19:01:00,
2013-05-23 14:11:00,53.0,48.0,29.96,North,355,12.0,21.0,83,0.00,,,0.02,,2013-05-23 19:11:00,
2013-05-23 14:21:00,53.0,48.0,29.97,North,5,14.0,22.0,83,0.00,,,0.02,,2013-05-23 19:21:00,
2013-05-23 14:32:00,53.0,47.0,29.98,North,10,14.0,21.0,81,0.00,,,0.02,,2013-05-23 19:32:00,
2013-05-23 14:42:00,53.0,47.0,29.98,North,5,14.0,24.0,81,0.00,,,0.02,,2013-05-23 19:42:00,
2013-05-23 14:52:00,53.0,47.0,29.98,North,5,14.0,24.0,81,0.00,,,0.02,,2013-05-23 19:52:00,
2013-05-23 15:02:00,53.0,47.0,29.99,North,5,15.0,22.0,80,0.00,,,0.02,,2013-05-23 20:02:00,
2013-05-23 15:11:00,53.0,47.0,29.99,North,5,15.0,22.0,80,0.00,,,0.02,,2013-05-23 20:11:00,
2013-05-23 15:21:00,53.0,47.0,30.00,North,360,13.0,24.0,81,0.00,,,0.02,,2013-05-23 20:21:00,
2013-05-23 15:32:00,53.0,47.0,30.01,North,355,14.0,21.0,80,0.00,,,0.02,,2013-05-23 20:32:00,
2013-05-23 15:42:00,53.0,47.0,30.01,North,355,14.0,21.0,80,0.00,,,0.02,,2013-05-23 20:42:00,
2013-05-23 15:51:00,53.0,47.0,30.01,North,360,15.0,22.0,79,0.00,,,0.02,,2013-05-23 20:51:00,
2013-05-23 16:01:00,53.0,46.0,30.02,North,5,13.0,25.0,78,0.00,,,0.02,,2013-05-23 21:01:00,
2013-05-23 16:11:00,53.0,46.0,30.02,North,5,13.0,25.0,78,0.00,,,0.02,,2013-05-23 21:11:00,
2013-05-23 16:21:00,53.0,46.0,30.02,North,351,17.0,26.0,77,0.00,,,0.02,,2013-05-23 21:21:00,
2013-05-23 16:32:00,54.0,47.0,30.03,North,355,14.0,23.0,76,0.00,,,0.02,,2013-05-23 21:32:00,
2013-05-23 16:43:00,54.0,47.0,30.03,North,355,14.0,23.0,76,0.00,,,0.02,,2013-05-23 21:43:00,
2013-05-23 16:53:00,54.0,47.0,30.03,North,9,12.0,21.0,77,0.00,,,0.02,,2013-05-23 21:53:00,
2013-05-23 17:03:00,53.0,46.0,30.03,North,360,12.0,19.0,76,0.00,,,0.02,,2013-05-23 22:03:00,
2013-05-23 17:12:00,53.0,46.0,30.03,North,360,12.0,19.0,76,0.00,,,0.02,,2013-05-23 22:12:00,
2013-05-23 17:22:00,53.0,45.0,30.05,North,360,11.0,19.0,75,0.00,,,0.02,,2013-05-23 22:22:00,
2013-05-23 17:33:00,53.0,45.0,30.05,North,11,12.0,18.0,74,0.00,,,0.02,,2013-05-23 22:33:00,
2013-05-23 17:42:00,53.0,45.0,30.05,North,11,12.0,18.0,74,0.00,,,0.02,,2013-05-23 22:42:00,
2013-05-23 17:52:00,53.0,45.0,30.05,North,355,16.0,22.0,75,0.00,,,0.02,,2013-05-23 22:52:00,
2013-05-23 18:01:00,53.0,45.0,30.06,NNE,12,13.0,22.0,73,0.00,,,0.02,,2013-05-23 23:01:00,
2013-05-23 18:11:00,53.0,45.0,30.06,NNE,12,13.0,22.0,73,0.00,,,0.02,,2013-05-23 23:11:00,
2013-05-23 18:21:00,53.0,45.0,30.07,North,360,14.0,21.0,74,0.00,,,0.02,,2013-05-23 23:21:00,
2013-05-23 18:32:00,53.0,45.0,30.07,NNE,17,14.0,24.0,73,0.00,,,0.02,,2013-05-23 23:32:00,
2013-05-23 18:42:00,53.0,45.0,30.07,NNE,17,14.0,24.0,73,0.00,,,0.02,,2013-05-23 23:42:00,
2013-05-23 18:52:00,52.0,44.0,30.08,NNE,15,15.0,19.0,73,0.00,,,0.02,,2013-05-23 23:52:00,
2013-05-23 19:01:00,52.0,44.0,30.09,NNE,23,14.0,21.0,73,0.00,,,0.02,,2013-05-24 00:01:00,
2013-05-23 19:12:00,52.0,44.0,30.09,NNE,23,14.0,21.0,73,0.00,,,0.02,,2013-05-24 00:12:00,
2013-05-23 19:21:00,52.0,44.0,30.09,NNE,12,11.0,16.0,73,0.00,,,0.02,,2013-05-24 00:21:00,
2013-05-23 19:32:00,51.0,43.0,30.10,NNE,17,10.0,15.0,73,0.00,,,0.02,,2013-05-24 00:32:00,
2013-05-23 19:42:00,51.0,43.0,30.10,NNE,17,10.0,15.0,73,0.00,,,0.02,,2013-05-24 00:42:00,
2013-05-23 19:52:00,51.0,43.0,30.11,North,11,11.0,18.0,74,0.00,,,0.02,,2013-05-24 00:52:00,
2013-05-23 20:01:00,51.0,43.0,30.12,NNE,19,11.0,16.0,73,0.00,,,0.02,,2013-05-24 01:01:00,
2013-05-23 20:12:00,51.0,43.0,30.12,NNE,19,11.0,16.0,73,0.00,,,0.02,,2013-05-24 01:12:00,
2013-05-23 20:22:00,50.0,42.0,30.13,North,11,9.0,18.0,73,0.00,,,0.02,,2013-05-24 01:22:00,
2013-05-23 20:32:00,49.0,41.0,30.14,NNE,18,6.0,12.0,75,0.00,,,0.01,,2013-05-24 01:32:00,
2013-05-23 20:42:00,49.0,41.0,30.14,NNE,18,6.0,12.0,75,0.00,,,0.01,,2013-05-24 01:42:00,
2013-05-23 20:52:00,48.0,40.0,30.14,NNE,24,6.0,11.0,75,0.00,,,0.01,,2013-05-24 01:52:00,
2013-05-23 21:01:00,48.0,41.0,30.14,NNE,22,6.0,11.0,76,0.00,,,0.01,,2013-05-24 02:01:00,
2013-05-23 21:11:00,48.0,41.0,30.14,NNE,22,6.0,11.0,76,0.00,,,0.01,,2013-05-24 02:11:00,
2013-05-23 21:21:00,48.0,41.0,30.14,NNE,22,6.0,11.0,76,0.00,,,0.01,,2013-05-24 02:21:00,
2013-05-23 21:32:00,47.0,41.0,30.15,NNE,26,4.0,6.0,79,0.00,,,0.01,,2013-05-24 02:32:00,
2013-05-23 21:42:00,47.0,41.0,30.15,NNE,26,4.0,6.0,79,0.00,,,0.01,,2013-05-24 02:42:00,
2013-05-23 21:52:00,47.0,41.0,30.15,NNE,26,4.0,6.0,79,0.00,,,0.01,,2013-05-24 02:52:00,
2013-05-23 22:02:00,46.0,40.0,30.17,NNE,26,5.0,9.0,79,0.00,,,0.01,,2013-05-24 03:02:00,
2013-05-23 22:11:00,45.0,39.0,30.18,NNE,22,6.0,9.0,80,0.00,,,0.01,,2013-05-24 03:11:00,
2013-05-23 22:21:00,45.0,39.0,30.18,NNE,22,6.0,9.0,80,0.00,,,0.01,,2013-05-24 03:21:00,
2013-05-23 22:33:00,45.0,39.0,30.18,NNE,25,4.0,8.0,80,0.00,,,0.01,,2013-05-24 03:33:00,
2013-05-23 22:42:00,45.0,39.0,30.18,NNE,25,4.0,8.0,80,0.00,,,0.01,,2013-05-24 03:42:00,
2013-05-23 22:53:00,45.0,39.0,30.18,NNE,19,5.0,8.0,80,0.00,,,0.01,,2013-05-24 03:53:00,
2013-05-23 23:03:00,44.0,38.0,30.19,North,9,5.0,8.0,79,0.00,,,0.01,,2013-05-24 04:03:00,
2013-05-23 23:12:00,44.0,38.0,30.19,North,9,5.0,8.0,79,0.00,,,0.01,,2013-05-24 04:12:00,
2013-05-23 23:22:00,44.0,38.0,30.19,NNE,13,6.0,14.0,78,0.00,,,0.01,,2013-05-24 04:22:00,
2013-05-23 23:33:00,44.0,37.0,30.19,North,9,4.0,8.0,77,0.00,,,0.01,,2013-05-24 04:33:00,
2013-05-23 23:42:00,44.0,37.0,30.19,North,9,4.0,8.0,77,0.00,,,0.01,,2013-05-24 04:42:00,
2013-05-23 23:52:00,43.0,37.0,30.19,North,5,6.0,10.0,79,0.00,,,0.01,,2013-05-24 04:52:00,